Previsão horária em Jutrosin

Hoje, 23 Junho, Quarta-feira

Tempo Temperatura Precipitação Vento Pressão Humidade
00:00 +18°C° 0 mm 3 m/s 752 mmHg 94%
01:00 +18°C° 0 mm 3 m/s 752 mmHg 95%
02:00 +17°C° 0 mm 3 m/s 752 mmHg 95%
03:00 +17°C° 0 mm 3 m/s 752 mmHg 95%
04:00 +17°C° 0 mm 3 m/s 752 mmHg 96%
05:00 +18°C° 0 mm 3 m/s 753 mmHg 92%
06:00 +18°C° 0 mm 3 m/s 753 mmHg 89%
07:00 +19°C° 0 mm 3 m/s 753 mmHg 85%
08:00 +20°C° 0 mm 3 m/s 754 mmHg 81%
09:00 +21°C° 0 mm 3 m/s 754 mmHg 77%
10:00 +22°C° 0 mm 3 m/s 754 mmHg 73%
11:00 +23°C° 0 mm 2 m/s 754 mmHg 72%
12:00 +24°C° 0 mm 2 m/s 754 mmHg 70%
13:00 +24°C° 0 mm 2 m/s 754 mmHg 69%
14:00 +24°C° 0 mm 2 m/s 754 mmHg 70%
15:00 +24°C° 0 mm 1 m/s 754 mmHg 70%
16:00 +24°C° 0 mm 1 m/s 754 mmHg 70%
17:00 +24°C° 0.1 mm 1 m/s 754 mmHg 74%
18:00 +23°C° 0.1 mm 1 m/s 754 mmHg 78%
19:00 +22°C° 0.1 mm 1 m/s 754 mmHg 81%
20:00 +22°C° 0 mm 1 m/s 754 mmHg 82%
21:00 +21°C° 0 mm 1 m/s 754 mmHg 83%
22:00 +21°C° 0 mm 1 m/s 754 mmHg 84%
23:00 +19°C° 0 mm 2 m/s 754 mmHg 86%

Amanhã, 24 Junho, Quinta-feira

Tempo Temperatura Precipitação Vento Pressão Humidade
00:00 +18°C° 0 mm 2 m/s 754 mmHg 88%
01:00 +17°C° 0 mm 2 m/s 754 mmHg 90%
02:00 +17°C° 0 mm 2 m/s 754 mmHg 90%
03:00 +17°C° 0 mm 2 m/s 753 mmHg 90%
04:00 +17°C° 0 mm 2 m/s 753 mmHg 90%
05:00 +19°C° 0.1 mm 2 m/s 753 mmHg 87%
06:00 +20°C° 0.1 mm 2 m/s 753 mmHg 85%
07:00 +21°C° 0.1 mm 2 m/s 753 mmHg 82%
08:00 +23°C° 0.2 mm 2 m/s 753 mmHg 79%
09:00 +24°C° 0.2 mm 2 m/s 753 mmHg 76%
10:00 +25°C° 0.2 mm 3 m/s 752 mmHg 73%
11:00 +26°C° 0.5 mm 3 m/s 752 mmHg 73%
12:00 +26°C° 0.5 mm 4 m/s 752 mmHg 73%
13:00 +26°C° 0.5 mm 4 m/s 752 mmHg 73%
14:00 +23°C° 0.2 mm 5 m/s 752 mmHg 75%
15:00 +22°C° 0.2 mm 5 m/s 752 mmHg 77%
16:00 +20°C° 0.2 mm 6 m/s 752 mmHg 78%
17:00 +19°C° 0 mm 6 m/s 752 mmHg 81%
18:00 +19°C° 0 mm 6 m/s 752 mmHg 83%
19:00 +17°C° 0 mm 6 m/s 751 mmHg 86%
20:00 +16°C° 0 mm 5 m/s 752 mmHg 89%
21:00 +15°C° 0 mm 4 m/s 752 mmHg 91%
22:00 +14°C° 0 mm 4 m/s 752 mmHg 94%
23:00 +14°C° 0 mm 4 m/s 752 mmHg 94%

Depois de amanhã, 25 Junho, Sexta-feira

Tempo Temperatura Precipitação Vento Pressão Humidade
00:00 +13°C° 0 mm 3 m/s 752 mmHg 94%
01:00 +13°C° 0 mm 3 m/s 752 mmHg 94%
02:00 +13°C° 0.1 mm 3 m/s 752 mmHg 94%
03:00 +13°C° 0.1 mm 3 m/s 752 mmHg 95%
04:00 +13°C° 0.1 mm 3 m/s 752 mmHg 95%
05:00 +14°C° 0 mm 3 m/s 752 mmHg 93%
06:00 +16°C° 0 mm 3 m/s 752 mmHg 91%
07:00 +15°C° 0 mm 4 m/s 752 mmHg 89%
08:00 +17°C° 0 mm 4 m/s 752 mmHg 83%
09:00 +19°C° 0 mm 4 m/s 752 mmHg 78%
10:00 +20°C° 0 mm 4 m/s 752 mmHg 72%
11:00 +20°C° 0.1 mm 3 m/s 752 mmHg 72%
12:00 +20°C° 0.1 mm 3 m/s 752 mmHg 72%
13:00 +20°C° 0.1 mm 3 m/s 752 mmHg 72%
14:00 +19°C° 0.2 mm 3 m/s 752 mmHg 79%
15:00 +18°C° 0.2 mm 3 m/s 752 mmHg 86%
16:00 +17°C° 0.2 mm 3 m/s 752 mmHg 92%
17:00 +17°C° 0 mm 3 m/s 752 mmHg 92%
18:00 +17°C° 0 mm 3 m/s 753 mmHg 92%
19:00 +17°C° 0 mm 3 m/s 753 mmHg 92%
20:00 +16°C° 0 mm 3 m/s 753 mmHg 93%
21:00 +16°C° 0 mm 3 m/s 753 mmHg 94%
22:00 +16°C° 0 mm 2 m/s 754 mmHg 94%
23:00 +14°C° 0 mm 3 m/s 754 mmHg 95%

26 Junho, Sábado

Tempo Temperatura Precipitação Vento Pressão Humidade
00:00 +14°C° 0 mm 3 m/s 754 mmHg 95%
01:00 +13°C° 0 mm 3 m/s 754 mmHg 96%
02:00 +14°C° 0 mm 2 m/s 754 mmHg 96%
03:00 +14°C° 0 mm 2 m/s 754 mmHg 96%
04:00 +14°C° 0 mm 2 m/s 754 mmHg 96%
05:00 +15°C° 0 mm 2 m/s 754 mmHg 91%
06:00 +17°C° 0 mm 2 m/s 755 mmHg 87%
07:00 +19°C° 0 mm 1 m/s 755 mmHg 82%
08:00 +20°C° 0 mm 2 m/s 755 mmHg 76%
09:00 +21°C° 0 mm 2 m/s 755 mmHg 70%
10:00 +23°C° 0 mm 2 m/s 755 mmHg 63%
11:00 +24°C° 0.3 mm 2 m/s 755 mmHg 61%
12:00 +25°C° 0.3 mm 2 m/s 755 mmHg 59%
13:00 +25°C° 0.3 mm 2 m/s 755 mmHg 56%
14:00 +25°C° 0.1 mm 2 m/s 755 mmHg 57%
15:00 +25°C° 0.1 mm 2 m/s 754 mmHg 57%
16:00 +25°C° 0.1 mm 2 m/s 754 mmHg 57%
17:00 +24°C° 0 mm 1 m/s 754 mmHg 61%
18:00 +24°C° 0 mm 1 m/s 754 mmHg 65%
19:00 +23°C° 0 mm 1 m/s 754 mmHg 69%
20:00 +22°C° 0 mm 1 m/s 754 mmHg 72%
21:00 +20°C° 0 mm 1 m/s 755 mmHg 74%
22:00 +19°C° 0 mm 1 m/s 755 mmHg 76%
23:00 +19°C° 0 mm 1 m/s 755 mmHg 77%

27 Junho, Domingo

Tempo Temperatura Precipitação Vento Pressão Humidade
00:00 +19°C° 0 mm 1 m/s 755 mmHg 78%
01:00 +18°C° 0 mm 1 m/s 755 mmHg 78%
02:00 +18°C° 0 mm 1 m/s 755 mmHg 80%
03:00 +18°C° 0 mm 1 m/s 755 mmHg 82%
04:00 +16°C° 0 mm 1 m/s 755 mmHg 84%
05:00 +19°C° 0 mm 1 m/s 755 mmHg 79%
06:00 +20°C° 0 mm 1 m/s 755 mmHg 74%
07:00 +22°C° 0 mm 1 m/s 755 mmHg 69%
08:00 +23°C° 0 mm 1 m/s 755 mmHg 64%
09:00 +25°C° 0 mm 1 m/s 755 mmHg 59%
10:00 +26°C° 0 mm 1 m/s 755 mmHg 54%
11:00 +27°C° 0 mm 1 m/s 755 mmHg 52%
12:00 +27°C° 0 mm 1 m/s 755 mmHg 50%
13:00 +28°C° 0 mm 1 m/s 754 mmHg 47%
14:00 +27°C° 0 mm 1 m/s 754 mmHg 52%
15:00 +27°C° 0 mm 2 m/s 754 mmHg 56%
16:00 +26°C° 0 mm 2 m/s 754 mmHg 61%
17:00 +26°C° 0 mm 2 m/s 754 mmHg 63%
18:00 +25°C° 0 mm 2 m/s 754 mmHg 66%
19:00 +25°C° 0 mm 2 m/s 754 mmHg 69%
20:00 +23°C° 0 mm 2 m/s 754 mmHg 69%
21:00 +21°C° 0 mm 3 m/s 754 mmHg 70%
22:00 +20°C° 0 mm 3 m/s 754 mmHg 70%
23:00 +20°C° 0 mm 3 m/s 754 mmHg 71%

28 Junho, Segunda-feira

Tempo Temperatura Precipitação Vento Pressão Humidade
00:00 +19°C° 0 mm 3 m/s 754 mmHg 71%
01:00 +19°C° 0 mm 3 m/s 754 mmHg 72%
02:00 +19°C° 0 mm 3 m/s 754 mmHg 75%
03:00 +18°C° 0 mm 2 m/s 754 mmHg 77%
04:00 +18°C° 0 mm 2 m/s 754 mmHg 80%
05:00 +20°C° 0 mm 2 m/s 754 mmHg 76%
06:00 +21°C° 0 mm 3 m/s 754 mmHg 73%
07:00 +22°C° 0 mm 3 m/s 754 mmHg 69%
08:00 +25°C° 0 mm 3 m/s 754 mmHg 64%
09:00 +26°C° 0 mm 3 m/s 754 mmHg 58%
10:00 +28°C° 0 mm 3 m/s 754 mmHg 53%
11:00 +29°C° 0 mm 3 m/s 754 mmHg 50%
12:00 +30°C° 0 mm 3 m/s 754 mmHg 47%
13:00 +31°C° 0 mm 2 m/s 754 mmHg 44%
14:00 +31°C° 0 mm 2 m/s 753 mmHg 43%
15:00 +31°C° 0 mm 2 m/s 753 mmHg 42%
16:00 +31°C° 0 mm 1 m/s 753 mmHg 41%
17:00 +30°C° 0 mm 1 m/s 753 mmHg 48%
18:00 +29°C° 0 mm 1 m/s 753 mmHg 54%
19:00 +28°C° 0 mm 1 m/s 752 mmHg 60%
20:00 +26°C° 0.1 mm 2 m/s 753 mmHg 63%
21:00 +25°C° 0.1 mm 2 m/s 753 mmHg 66%
22:00 +23°C° 0.1 mm 2 m/s 753 mmHg 69%
23:00 +23°C° 0 mm 2 m/s 752 mmHg 71%
Mostrar mais

Necessitamos do seu Consentimento

A Meteoprog e os seus Fornecedores de Serviços podem armazenar e aceder a dados pessoais como cookies, identificadores do dispositivo ou outras tecnologias semelhantes existentes no seu dispositivo e processar estes dados para personalizar conteúdos e anúncios, assim como funcionalidades nas redes sociais e análise de tráfego.

  • Armazenar e/ou aceder a informações no seu dispositivo

    Os cookies, identificadores do dispositivo ou outras informações podem ser armazenados ou acedidos no seu dispositivo, para os fins acima indicados.

  • Anúncios e conteúdos personalizados, medição de anúncios e conteúdos, dados sobre o público-alvo e desenvolvimento de produtos

    Os anúncios e os conteúdos podem ser personalizados com base num perfil. Podem ser adicionados dados adicionais para uma maior personalização dos anúncios e dos conteúdos. A eficácia dos anúncios e dos conteúdos pode ser medida. Podem ser obtidas informações sobre o público que visualizou os anúncios e os conteúdos. Estes dados podem ser usados para desenvolver ou melhorar sistemas, softwares ou a experiência do utilizador.

Ao clicar em "Eu concordo”, permitirá o uso de cookies, identificadores do dispositivo e web beacons mencionados ou outras tecnologias semelhantes. As configurações do navegador do seu dispositivo podem ser alteradas.

Para certos fins, podem ser invocados interesses legítimos ao invés de consentimento. Pode ler mais informação sobre este assunto na nossa Política de Privacidade e Cookies.